Vertical_Velocity
-1 1 1 -1 0 -1 -1 0 -0 0 -1 -0 0 1 0 -0 1 1 1 1 0 0 2 0 -2 -0 -1 -1 -1 -0 -1 -1 -1 -1 -2 -2 -1 -1 -2 -2 -0 -0 -1
0 -0 1 0 2 1 2 1 -1 -0 -1 -1 -1 -1 1 1 1 1 0 -0 -0 -0 -0 2 0 -1 -1 -3 -1 -3 -3 -1 -1 -1 -1 -2 -1 0 -1 -1 -1 -1 1
1 0 -0 -0 0 -1 1 1 -1 1 -0 -0 -2 -1 -0 1 -1 0 1 -0 0 -0 -0 -0 1 -0 -1 -2 -2 -2 -3 -2 -3 -2 -1 -0 -0 -2 -1 -1 -1 -1 0
2 3 2 2 0 1 1 -1 0 -2 -0 -0 1 0 -1 -2 -1 -0 1 1 2 2 0 0 1 1 1 -0 -1 -0 -1 -1 -3 -2 -0 0 -1 -1 -2 -2 -2 -2 -2
2 1 1 2 0 -1 -3 -0 -1 1 2 1 0 -2 1 -1 -1 -1 -1 -1 -1 1 1 -1 -4 -2 -0 1 -0 -0 0 -1 -0 -2 -1 -1 -1 -1 -1 -2 -2 -3 -3
0 -0 1 2 1 1 0 0 2 2 2 0 0 2 1 3 2 2 1 1 1 -2 1 2 -1 -0 -2 -2 -1 -1 -1 -1 -1 -2 -1 -1 -2 -1 -1 -1 -2 -2 -3
7 -1 -0 2 -1 -2 2 2 2 0 -0 1 3 2 1 -1 -2 1 0 0 0 -1 -0 1 -0 -0 1 -0 0 -1 -2 -1 -1 -1 -1 -2 -2 -1 -1 -1 -1 -1 -2
2 -0 1 2 3 -1 -1 0 0 -0 2 1 1 2 1 -1 -1 -1 -1 -1 1 -1 0 1 2 0 -0 -1 -0 -0 -2 -1 -1 0 0 1 -1 -2 -1 -1 -1 -0 0
7 -1 4 -1 5 3 -2 1 0 3 4 2 1 2 -2 -3 1 0 -0 -0 1 -1 -1 -2 1 1 -3 -1 -1 -2 -2 -1 0 -0 -1 0 0 0 -1 1 -1 -1 -1
-2 -0 5 1 4 2 -1 6 3 -1 3 2 4 1 4 0 -1 -2 -0 -0 -0 0 1 -1 1 0 -1 -2 -0 0 -1 -0 -0 -1 -1 -1 -2 -2 -2 -2 -3 -2 -2
2 2 -2 0 3 2 3 4 3 1 -1 -1 -3 -2 2 2 1 2 -2 -3 1 1 2 1 -1 2 -1 -1 -1 0 -1 -0 0 0 -0 -1 -1 -1 -2 -1 -2 -1 -2
4 -0 -1 -0 1 1 -1 3 6 3 4 3 5 -3 7 -2 -2 1 4 -0 0 -3 -3 0 -4 1 -1 0 2 -2 -1 -1 -2 -2 -2 -1 -1 -1 -1 -1 -1 -2 -3
2 -0 3 -2 -0 3 5 3 4 3 2 0 4 5 -2 2 1 0 -4 0 -3 -0 -1 4 -0 2 -1 -2 1 2 -2 -1 -2 -2 -2 -0 -1 -1 -1 -2 -2 -2 -1
4 6 2 3 6 5 4 4 4 3 1 1 2 2 11 -2 1 7 -1 1 2 1 -1 4 2 2 0 -3 -2 -2 -3 -1 -3 -3 -5 -4 -2 -1 -0 -1 -2 -2 -1
-1 5 7 7 1 3 6 4 2 -0 5 7 0 6 -5 9 -0 2 -4 1 -2 -0 -5 -5 -2 -2 0 -0 2 -1 -1 -2 -2 -2 -4 -2 -2 -2 -3 -3 -2 -3 -3
1 5 3 4 9 5 5 2 2 1 3 5 5 5 8 5 3 -4 -5 -2 -3 1 -0 -3 -1 2 0 -1 0 2 1 2 1 -2 -0 1 0 -0 -3 -3 -1 -0 -0
3 3 4 10 6 2 3 2 6 6 5 5 4 -0 3 7 1 6 10 -7 3 0 -0 -1 -3 -1 -4 -3 -2 -0 1 -1 -3 -2 1 2 -0 -3 -1 -2 -1 -1 -1
5 5 3 3 4 2 1 3 2 4 2 2 3 -1 0 4 -10 -1 1 -2 1 1 2 1 -2 -4 -1 -2 -0 -3 -2 -3 -4 -2 0 1 -1 -1 -0 -1 -1 -4 1
1 7 4 3 4 6 6 1 5 -3 -6 0 2 -6 2 -12 4 -4 -5 -2 -2 -1 1 0 -3 -2 -2 -3 -5 -3 -2 -5 -4 -3 1 3 -1 -1 -0 0 2 0 -3
3 2 3 6 6 8 5 3 -2 0 2 0 1 -2 2 -12 2 -5 -5 7 2 -2 -1 2 0 1 0 -2 -3 -3 -7 -5 -8 -7 4 3 -3 -1 -1 2 2 -1 1
5 13 4 2 0 -1 2 2 -3 -4 6 -1 1 1 -1 -7 9 0 2 -2 5 -1 -1 -0 -1 -1 -3 -3 2 -2 -4 -2 -4 -9 -5 -4 -7 -5 -5 0 -0 1 2
6 1 9 3 1 -2 -11 4 1 3 2 -3 -8 -7 0 -0 -2 -1 -1 0 5 0 -1 -1 -3 -2 1 -0 -1 -2 -1 -4 -17 -15 -10 -8 -0 -4 -1 1 -3 -3 -4
8 -5 -0 4 -3 -4 5 -3 5 2 -11 -2 -2 2 -5 -1 3 -3 5 3 -1 -0 3 3 1 0 -2 0 -2 -10 -2 2 -2 -8 -2 -8 4 -10 -1 -4 -0 0 1
5 -2 -3 -5 4 3 0 -1 -6 -6 6 -5 -4 -2 4 -0 -2 3 0 -5 -3 0 0 -0 -2 -0 1 -3 3 6 -1 1 -1 -4 4 -21 8 -5 -2 -3 -6 -4 2
2 8 2 -5 1 3 -2 -3 2 1 -0 1 4 -5 -4 -1 1 1 -3 -1 -2 -2 1 -1 1 2 1 1 4 1 -5 -2 -7 -6 2 -3 -1 -13 -2 -1 -7 -6 -6
6 3 -3 -6 1 0 -2 5 0 -3 0 2 -2 -3 1 -1 -1 -0 4 -2 -5 -2 -3 -1 3 3 3 0 2 5 6 2 5 -15 5 0 3 0 -21 -5 -4 -5 -2
Height
1535 1537 1539 1541 1542 1544 1546 1547 1549 1550 1552 1553 1553 1553 1554 1554 1554 1553 1554 1552 1553 1552 1551 1550 1549 1549 1549 1549 1549 1548 1548 1548 1547 1546 1546 1545 1545 1545 1545 1544 1544 1543 1543
1532 1535 1537 1539 1540 1542 1544 1545 1547 1548 1550 1551 1552 1552 1553 1553 1552 1552 1551 1551 1551 1550 1550 1549 1548 1548 1548 1547 1547 1546 1546 1546 1545 1545 1544 1543 1543 1542 1542 1542 1541 1540 1540
1529 1531 1534 1536 1538 1540 1542 1543 1544 1546 1548 1548 1550 1550 1551 1551 1551 1550 1549 1549 1549 1548 1548 1548 1548 1547 1546 1546 1545 1544 1543 1544 1543 1543 1542 1541 1540 1540 1539 1539 1538 1537 1536
1526 1528 1530 1533 1535 1538 1539 1541 1542 1544 1545 1547 1547 1547 1548 1548 1548 1548 1548 1547 1547 1547 1547 1547 1547 1546 1545 1544 1543 1543 1542 1540 1540 1540 1539 1538 1537 1536 1536 1535 1535 1534 1533
1522 1524 1528 1530 1532 1534 1536 1538 1539 1541 1543 1543 1544 1545 1545 1544 1545 1545 1545 1545 1545 1544 1544 1543 1544 1545 1544 1543 1542 1541 1540 1539 1538 1537 1536 1535 1534 1533 1532 1532 1531 1531 1531
1518 1520 1523 1526 1528 1529 1531 1534 1536 1537 1539 1540 1541 1542 1542 1542 1542 1542 1542 1542 1542 1542 1542 1541 1541 1541 1541 1541 1540 1539 1537 1536 1535 1533 1532 1531 1530 1529 1528 1529 1528 1528 1528
1513 1516 1519 1522 1523 1524 1527 1530 1532 1534 1535 1537 1537 1538 1538 1539 1539 1540 1540 1540 1540 1539 1540 1540 1538 1538 1538 1537 1536 1535 1533 1532 1531 1530 1528 1527 1526 1526 1525 1525 1525 1524 1523
1509 1511 1513 1516 1518 1520 1522 1524 1527 1529 1530 1532 1534 1535 1535 1536 1535 1535 1536 1537 1537 1536 1537 1536 1535 1534 1535 1534 1533 1531 1529 1528 1526 1525 1524 1523 1522 1522 1521 1521 1520 1519 1518
1501 1506 1507 1510 1513 1514 1516 1518 1521 1524 1526 1528 1530 1532 1531 1529 1529 1530 1530 1531 1532 1532 1532 1533 1532 1530 1530 1529 1528 1526 1524 1523 1521 1520 1519 1519 1518 1517 1516 1515 1514 1513 1512
1494 1497 1500 1504 1506 1508 1510 1511 1515 1518 1521 1523 1525 1526 1526 1526 1526 1527 1527 1526 1527 1527 1527 1527 1527 1525 1524 1524 1522 1520 1518 1517 1516 1514 1513 1512 1511 1509 1508 1507 1506 1505 1504
1485 1489 1493 1496 1499 1502 1503 1506 1509 1510 1513 1516 1517 1519 1520 1520 1521 1522 1522 1522 1523 1523 1523 1522 1522 1521 1519 1519 1517 1516 1514 1512 1510 1508 1507 1504 1503 1502 1500 1499 1497 1496 1495
1476 1480 1485 1489 1492 1495 1496 1499 1502 1504 1507 1510 1511 1512 1515 1514 1515 1517 1517 1516 1518 1518 1518 1517 1517 1516 1514 1514 1512 1510 1508 1506 1504 1502 1499 1497 1494 1493 1491 1489 1488 1486 1485
1468 1472 1476 1479 1483 1486 1489 1492 1494 1497 1500 1503 1506 1507 1508 1509 1510 1511 1513 1513 1512 1512 1514 1512 1511 1510 1509 1509 1508 1504 1502 1499 1496 1493 1491 1488 1485 1482 1480 1478 1477 1476 1476
1461 1465 1469 1472 1475 1478 1481 1484 1488 1492 1495 1498 1500 1502 1502 1503 1504 1507 1507 1509 1507 1506 1508 1508 1506 1505 1504 1503 1502 1498 1494 1491 1487 1484 1482 1479 1476 1472 1470 1469 1468 1467 1465
1454 1457 1460 1463 1467 1471 1474 1478 1482 1486 1489 1491 1494 1496 1498 1497 1499 1502 1502 1502 1502 1501 1501 1501 1501 1500 1499 1497 1494 1489 1486 1482 1478 1475 1472 1469 1466 1463 1462 1460 1459 1457 1456
1445 1448 1451 1455 1459 1463 1468 1474 1478 1481 1485 1487 1488 1492 1492 1494 1494 1495 1496 1499 1494 1497 1496 1494 1495 1494 1493 1490 1487 1483 1479 1474 1471 1468 1465 1461 1457 1456 1454 1453 1451 1448 1447
1439 1442 1445 1449 1454 1458 1464 1469 1473 1476 1481 1483 1485 1487 1490 1490 1493 1494 1492 1492 1494 1492 1489 1488 1487 1488 1485 1482 1480 1477 1473 1468 1463 1461 1457 1452 1449 1448 1446 1444 1442 1440 1438
1433 1436 1440 1445 1450 1455 1460 1464 1469 1473 1478 1480 1481 1483 1484 1485 1486 1488 1489 1489 1491 1489 1485 1480 1479 1479 1477 1475 1471 1467 1464 1460 1456 1453 1449 1444 1441 1439 1436 1434 1432 1430 1428
1431 1432 1437 1443 1448 1452 1456 1461 1466 1469 1473 1477 1479 1478 1480 1480 1481 1482 1486 1487 1485 1483 1480 1475 1472 1471 1468 1466 1462 1460 1456 1451 1448 1445 1441 1437 1434 1432 1429 1426 1425 1422 1418
1426 1430 1435 1440 1446 1450 1454 1457 1463 1468 1471 1474 1474 1478 1476 1476 1478 1475 1482 1481 1477 1475 1475 1471 1467 1464 1462 1460 1456 1451 1445 1443 1438 1437 1434 1430 1427 1425 1422 1419 1416 1412 1408
1426 1429 1433 1439 1445 1452 1457 1458 1461 1466 1470 1473 1473 1473 1471 1473 1474 1472 1473 1474 1473 1468 1467 1465 1462 1458 1456 1453 1450 1445 1439 1434 1431 1429 1425 1422 1419 1415 1413 1410 1406 1402 1398
1426 1432 1436 1440 1445 1451 1456 1461 1463 1466 1468 1469 1470 1471 1471 1473 1471 1470 1470 1470 1468 1464 1460 1458 1456 1454 1450 1448 1443 1439 1435 1431 1423 1424 1418 1412 1411 1405 1403 1399 1396 1393 1389
1429 1433 1439 1445 1449 1454 1460 1460 1464 1464 1465 1466 1467 1469 1469 1470 1467 1467 1466 1463 1461 1460 1456 1455 1451 1450 1445 1443 1438 1435 1432 1426 1421 1417 1413 1400 1402 1395 1394 1390 1388 1384 1381
1436 1440 1445 1450 1453 1454 1458 1459 1461 1463 1462 1464 1465 1466 1466 1466 1464 1461 1458 1456 1455 1454 1452 1449 1446 1443 1440 1437 1434 1430 1424 1418 1413 1410 1409 1394 1392 1386 1383 1379 1378 1375 1372
1441 1444 1448 1452 1456 1456 1457 1459 1461 1461 1461 1462 1463 1462 1462 1460 1457 1454 1454 1451 1449 1447 1446 1443 1441 1438 1436 1432 1429 1423 1418 1413 1404 1402 1399 1392 1385 1377 1373 1367 1366 1364 1362
1446 1447 1450 1454 1456 1456 1458 1458 1460 1462 1462 1460 1459 1459 1457 1454 1451 1451 1451 1447 1444 1442 1440 1437 1435 1433 1430 1427 1424 1420 1414 1408 1403 1394 1393 1388 1380 1376 1362 1358 1356 1354 1352